| time (UTC) | temp F | wind direction | speed MPH | gust MPH | rain 1hr in | rain 24hr in | rain mn in | humidity % | barometer mb |
| 20260504050450 | 43 | 274 | 0.0 | 0.0 | 0.00 | 0.00 | 0.00 | 78 | 1017.0 |
| 20260504045947 | 43 | 271 | 0.0 | 0.0 | 0.00 | 0.00 | 0.00 | 77 | 1017.0 |
| 20260504045443 | 43 | 271 | 0.0 | 0.0 | 0.00 | 0.00 | 0.00 | 77 | 1017.0 |
| 20260504044939 | 43 | 271 | 0.0 | 0.0 | 0.00 | 0.00 | 0.00 | 77 | 1017.0 |
| 20260504044437 | 43 | 273 | 0.0 | 0.0 | 0.00 | 0.00 | 0.00 | 77 | 1017.0 |
| 20260504043934 | 43 | 271 | 0.0 | 0.0 | 0.00 | 0.00 | 0.00 | 77 | 1017.0 |
| 20260504043431 | 43 | 271 | 0.0 | 0.0 | 0.00 | 0.00 | 0.00 | 77 | 1017.0 |
| 20260504042928 | 43 | 273 | 0.0 | 0.0 | 0.00 | 0.00 | 0.00 | 77 | 1017.0 |
| 20260504042425 | 43 | 272 | 0.0 | 0.0 | 0.00 | 0.00 | 0.00 | 77 | 1017.0 |
| 20260504041921 | 43 | 271 | 0.0 | 0.0 | 0.00 | 0.00 | 0.00 | 76 | 1017.0 |
| 20260504041418 | 44 | 273 | 0.0 | 0.0 | 0.00 | 0.00 | 0.00 | 76 | 1017.0 |
| 20260504040914 | 44 | 275 | 0.0 | 0.0 | 0.00 | 0.00 | 0.00 | 76 | 1017.0 |
| 20260504040412 | 44 | 275 | 0.0 | 0.0 | 0.00 | 0.00 | 0.00 | 76 | 1017.0 |
| 20260504035907 | 44 | 279 | 0.0 | 0.0 | 0.00 | 0.00 | 0.00 | 75 | 1017.0 |
| 20260504035405 | 44 | 281 | 0.0 | 0.0 | 0.00 | 0.00 | 0.00 | 75 | 1017.0 |
| 20260504034901 | 44 | 284 | 0.0 | 0.0 | 0.00 | 0.00 | 0.00 | 74 | 1017.0 |
| 20260504034359 | 44 | 286 | 0.0 | 0.0 | 0.00 | 0.00 | 0.00 | 74 | 1017.0 |
| 20260504033856 | 45 | 288 | 0.0 | 0.0 | 0.00 | 0.00 | 0.00 | 74 | 1016.6 |
| 20260504033354 | 45 | 288 | 0.0 | 0.0 | 0.00 | 0.00 | 0.00 | 74 | 1016.6 |
| 20260504032850 | 45 | 290 | 0.0 | 0.0 | 0.00 | 0.00 | 0.00 | 74 | 1016.6 |
| 20260504032347 | 45 | 291 | 0.0 | 0.0 | 0.00 | 0.00 | 0.00 | 73 | 1016.3 |
| 20260504031844 | 45 | 292 | 0.0 | 0.0 | 0.00 | 0.00 | 0.00 | 73 | 1016.3 |
| 20260504031341 | 45 | 291 | 0.0 | 0.0 | 0.00 | 0.00 | 0.00 | 73 | 1016.3 |
| 20260504030837 | 46 | 292 | 0.0 | 0.0 | 0.00 | 0.00 | 0.00 | 73 | 1016.3 |
| 20260504030335 | 46 | 291 | 0.0 | 0.0 | 0.00 | 0.00 | 0.00 | 72 | 1016.3 |
| 20260504025831 | 46 | 291 | 0.0 | 0.0 | 0.00 | 0.00 | 0.00 | 72 | 1016.3 |
| 20260504025328 | 46 | 290 | 0.0 | 0.0 | 0.00 | 0.00 | 0.00 | 71 | 1016.3 |
| 20260504024825 | 46 | 291 | 0.0 | 0.0 | 0.00 | 0.00 | 0.00 | 71 | 1016.3 |
| 20260504024316 | 46 | 292 | 0.0 | 0.0 | 0.00 | 0.00 | 0.00 | 71 | 1015.9 |
| 20260504023813 | 47 | 293 | 0.0 | 0.0 | 0.00 | 0.00 | 0.00 | 70 | 1016.3 |
| 20260504023309 | 47 | 292 | 0.0 | 0.0 | 0.00 | 0.00 | 0.00 | 70 | 1016.3 |
| 20260504022805 | 47 | 292 | 0.0 | 0.0 | 0.00 | 0.00 | 0.00 | 69 | 1016.3 |
| 20260504022304 | 47 | 293 | 0.0 | 0.0 | 0.00 | 0.00 | 0.00 | 68 | 1016.3 |
| 20260504021758 | 48 | 293 | 0.0 | 0.0 | 0.00 | 0.00 | 0.00 | 67 | 1016.3 |
| 20260504021256 | 48 | 293 | 0.0 | 0.0 | 0.00 | 0.00 | 0.00 | 67 | 1016.3 |
| 20260504020753 | 48 | 297 | 0.0 | 0.0 | 0.00 | 0.00 | 0.00 | 67 | 1015.9 |
| 20260504020249 | 48 | 298 | 0.0 | 0.0 | 0.00 | 0.00 | 0.00 | 67 | 1015.9 |
| 20260504015745 | 49 | 298 | 0.0 | 0.0 | 0.00 | 0.00 | 0.00 | 66 | 1015.9 |
| 20260504015242 | 50 | 298 | 0.0 | 0.0 | 0.00 | 0.00 | 0.00 | 64 | 1015.9 |
| 20260504014737 | 50 | 298 | 0.0 | 0.0 | 0.00 | 0.00 | 0.00 | 63 | 1016.3 |
| 20260504014235 | 50 | 298 | 0.0 | 0.0 | 0.00 | 0.00 | 0.00 | 62 | 1015.9 |
| 20260504013732 | 50 | 298 | 0.0 | 0.0 | 0.00 | 0.00 | 0.00 | 62 | 1015.9 |
| 20260504013230 | 51 | 298 | 0.0 | 0.0 | 0.00 | 0.00 | 0.00 | 61 | 1015.9 |
| 20260504012726 | 51 | 298 | 0.0 | 0.0 | 0.00 | 0.00 | 0.00 | 60 | 1015.9 |
| 20260504012224 | 51 | 298 | 0.0 | 0.0 | 0.00 | 0.00 | 0.00 | 59 | 1015.9 |
| 20260504011721 | 52 | 298 | 0.0 | 0.0 | 0.00 | 0.00 | 0.00 | 58 | 1015.9 |
| 20260504011218 | 52 | 298 | 0.0 | 0.0 | 0.00 | 0.00 | 0.00 | 56 | 1015.9 |
| 20260504010714 | 53 | 298 | 0.0 | 0.0 | 0.00 | 0.00 | 0.00 | 55 | 1015.9 |
| 20260504010210 | 53 | 298 | 0.0 | 0.0 | 0.00 | 0.00 | 0.00 | 54 | 1015.9 |
| 20260504005706 | 54 | 298 | 0.0 | 0.0 | 0.00 | 0.00 | 0.00 | 53 | 1015.9 |
| 20260504005203 | 54 | 298 | 0.0 | 0.0 | 0.00 | 0.00 | 0.00 | 52 | 1015.9 |
| 20260504004702 | 55 | 298 | 0.0 | 0.0 | 0.00 | 0.00 | 0.00 | 51 | 1015.6 |
| 20260504004158 | 55 | 298 | 0.0 | 0.0 | 0.00 | 0.00 | 0.00 | 50 | 1015.6 |
| 20260504003654 | 56 | 298 | 0.0 | 0.0 | 0.00 | 0.00 | 0.00 | 49 | 1015.6 |
| 20260504003151 | 56 | 298 | 0.0 | 0.0 | 0.00 | 0.00 | 0.00 | 47 | 1015.6 |
| 20260504002648 | 57 | 298 | 0.0 | 0.0 | 0.00 | 0.00 | 0.00 | 46 | 1015.6 |
| 20260504002145 | 57 | 298 | 0.0 | 0.0 | 0.00 | 0.00 | 0.00 | 45 | 1015.6 |
| 20260504001643 | 58 | 298 | 0.0 | 0.0 | 0.00 | 0.00 | 0.00 | 43 | 1015.6 |
| 20260504001139 | 58 | 298 | 0.0 | 0.0 | 0.00 | 0.00 | 0.00 | 43 | 1015.3 |
| 20260504000636 | 59 | 298 | 0.0 | 2.0 | 0.00 | 0.00 | 0.00 | 42 | 1015.3 |
| 20260504000134 | 59 | 298 | 0.0 | 2.0 | 0.00 | 0.00 | 0.00 | 41 | 1015.3 |
| 20260503235631 | 59 | 298 | 0.0 | 2.0 | 0.00 | 0.00 | 0.00 | 40 | 1015.3 |
| 20260503235128 | 60 | 298 | 0.0 | 1.0 | 0.00 | 0.00 | 0.00 | 39 | 1015.3 |
| 20260503234626 | 60 | 5 | 0.0 | 2.0 | 0.00 | 0.00 | 0.00 | 37 | 1015.3 |
| 20260503234124 | 60 | 5 | 0.0 | 2.0 | 0.00 | 0.00 | 0.00 | 38 | 1014.9 |
| 20260503233621 | 60 | 0 | 0.0 | 2.0 | 0.00 | 0.00 | 0.00 | 38 | 1014.9 |
| 20260503233116 | 60 | 28 | 0.0 | 2.0 | 0.00 | 0.00 | 0.00 | 37 | 1014.9 |
| 20260503232613 | 60 | 32 | 0.0 | 2.0 | 0.00 | 0.00 | 0.00 | 39 | 1014.9 |
| 20260503232111 | 61 | 159 | 0.0 | 3.0 | 0.00 | 0.00 | 0.00 | 36 | 1014.9 |
| 20260503231609 | 61 | 159 | 0.0 | 3.0 | 0.00 | 0.00 | 0.00 | 38 | 1014.9 |
| 20260503231105 | 61 | 159 | 1.0 | 4.0 | 0.00 | 0.00 | 0.00 | 36 | 1014.9 |
| 20260503230602 | 61 | 159 | 1.0 | 5.0 | 0.00 | 0.00 | 0.00 | 36 | 1014.9 |
| 20260503230059 | 61 | 340 | 1.0 | 5.0 | 0.00 | 0.00 | 0.00 | 37 | 1014.9 |
| 20260503225555 | 61 | 161 | 1.0 | 5.0 | 0.00 | 0.00 | 0.00 | 36 | 1014.9 |
| 20260503225050 | 61 | 163 | 1.0 | 4.0 | 0.00 | 0.00 | 0.00 | 38 | 1014.9 |
| 20260503224548 | 61 | 315 | 1.0 | 4.0 | 0.00 | 0.00 | 0.00 | 38 | 1014.9 |
| 20260503224046 | 61 | 242 | 1.0 | 5.0 | 0.00 | 0.00 | 0.00 | 36 | 1014.9 |
| 20260503223544 | 62 | 344 | 1.0 | 6.0 | 0.00 | 0.00 | 0.00 | 38 | 1015.3 |
| 20260503223039 | 62 | 324 | 1.0 | 6.0 | 0.00 | 0.00 | 0.00 | 37 | 1015.3 |
| 20260503222537 | 62 | 232 | 1.0 | 6.0 | 0.00 | 0.00 | 0.00 | 36 | 1014.9 |
| 20260503222035 | 62 | 194 | 1.0 | 6.0 | 0.00 | 0.00 | 0.00 | 35 | 1014.9 |
| 20260503221533 | 62 | 231 | 1.0 | 4.0 | 0.00 | 0.00 | 0.00 | 36 | 1014.9 |
| 20260503221030 | 62 | 330 | 1.0 | 5.0 | 0.00 | 0.00 | 0.00 | 37 | 1014.9 |
| 20260503220526 | 62 | 341 | 2.0 | 5.0 | 0.00 | 0.00 | 0.00 | 35 | 1014.9 |
| 20260503220023 | 62 | 170 | 1.0 | 7.0 | 0.00 | 0.00 | 0.00 | 36 | 1014.9 |
| 20260503215520 | 62 | 301 | 2.0 | 7.0 | 0.00 | 0.00 | 0.00 | 37 | 1014.9 |
| 20260503215017 | 62 | 229 | 2.0 | 4.0 | 0.00 | 0.00 | 0.00 | 35 | 1014.9 |
| 20260503214516 | 62 | 239 | 1.0 | 3.0 | 0.00 | 0.00 | 0.00 | 35 | 1014.9 |
| 20260503214012 | 62 | 271 | 2.0 | 5.0 | 0.00 | 0.00 | 0.00 | 34 | 1015.3 |
| 20260503213510 | 62 | 334 | 2.0 | 6.0 | 0.00 | 0.00 | 0.00 | 32 | 1014.9 |
| 20260503213007 | 62 | 21 | 2.0 | 8.0 | 0.00 | 0.00 | 0.00 | 35 | 1015.3 |
| 20260503212504 | 62 | 176 | 2.0 | 8.0 | 0.00 | 0.00 | 0.00 | 36 | 1014.9 |
| 20260503212001 | 62 | 322 | 2.0 | 8.0 | 0.00 | 0.00 | 0.00 | 34 | 1015.3 |
| 20260503211458 | 62 | 177 | 2.0 | 11.0 | 0.00 | 0.00 | 0.00 | 35 | 1015.3 |
| 20260503210954 | 62 | 175 | 2.0 | 11.0 | 0.00 | 0.00 | 0.00 | 35 | 1014.9 |
| 20260503210452 | 62 | 174 | 3.0 | 11.0 | 0.00 | 0.00 | 0.00 | 37 | 1015.3 |
| 20260503205951 | 63 | 213 | 3.0 | 11.0 | 0.00 | 0.00 | 0.00 | 34 | 1014.9 |
| 20260503205448 | 63 | 0 | 2.0 | 8.0 | 0.00 | 0.00 | 0.00 | 34 | 1014.9 |
| 20260503204944 | 63 | 318 | 2.0 | 8.0 | 0.00 | 0.00 | 0.00 | 36 | 1014.9 |
| 20260503204442 | 63 | 205 | 2.0 | 5.0 | 0.00 | 0.00 | 0.00 | 34 | 1014.9 |
| 20260503203938 | 63 | 210 | 1.0 | 12.0 | 0.00 | 0.00 | 0.00 | 35 | 1015.3 |
| 20260503203436 | 64 | 168 | 1.0 | 12.0 | 0.00 | 0.00 | 0.00 | 36 | 1015.3 |
| 20260503202933 | 64 | 141 | 3.0 | 12.0 | 0.00 | 0.00 | 0.00 | 35 | 1015.3 |
| 20260503202431 | 63 | 351 | 3.0 | 12.0 | 0.00 | 0.00 | 0.00 | 34 | 1015.3 |
| 20260503201930 | 63 | 340 | 2.0 | 8.0 | 0.00 | 0.00 | 0.00 | 35 | 1015.3 |
| 20260503201426 | 63 | 25 | 2.0 | 8.0 | 0.00 | 0.00 | 0.00 | 36 | 1015.3 |
| 20260503200924 | 63 | 155 | 2.0 | 10.0 | 0.00 | 0.00 | 0.00 | 35 | 1015.3 |
| 20260503200420 | 63 | 213 | 3.0 | 10.0 | 0.00 | 0.00 | 0.00 | 35 | 1015.3 |
| 20260503195917 | 63 | 315 | 3.0 | 10.0 | 0.00 | 0.00 | 0.00 | 35 | 1015.6 |
| 20260503195414 | 63 | 5 | 3.0 | 10.0 | 0.00 | 0.00 | 0.00 | 36 | 1015.6 |
| 20260503194910 | 62 | 341 | 2.0 | 9.0 | 0.00 | 0.00 | 0.00 | 36 | 1015.6 |
| 20260503194407 | 62 | 0 | 2.0 | 9.0 | 0.00 | 0.00 | 0.00 | 36 | 1015.9 |
| 20260503193903 | 62 | 167 | 2.0 | 9.0 | 0.00 | 0.00 | 0.00 | 38 | 1015.9 |
| 20260503193358 | 62 | 245 | 2.0 | 9.0 | 0.00 | 0.00 | 0.00 | 39 | 1015.9 |
| 20260503192854 | 62 | 169 | 2.0 | 5.0 | 0.00 | 0.00 | 0.00 | 35 | 1015.9 |
| 20260503192350 | 62 | 217 | 2.0 | 6.0 | 0.00 | 0.00 | 0.00 | 35 | 1015.9 |
| 20260503191847 | 63 | 201 | 2.0 | 6.0 | 0.00 | 0.00 | 0.00 | 37 | 1015.9 |
| 20260503191344 | 62 | 315 | 2.0 | 5.0 | 0.00 | 0.00 | 0.00 | 38 | 1015.9 |
| 20260503190841 | 62 | 184 | 1.0 | 15.0 | 0.00 | 0.00 | 0.00 | 38 | 1015.9 |
| 20260503190338 | 61 | 188 | 2.0 | 15.0 | 0.00 | 0.00 | 0.00 | 39 | 1015.9 |
| 20260503185835 | 61 | 199 | 3.0 | 15.0 | 0.00 | 0.00 | 0.00 | 37 | 1015.9 |
| 20260503185331 | 61 | 183 | 3.0 | 15.0 | 0.00 | 0.00 | 0.00 | 37 | 1015.9 |
| 20260503184826 | 61 | 174 | 2.0 | 9.0 | 0.00 | 0.00 | 0.00 | 37 | 1016.3 |
| 20260503184322 | 61 | 0 | 3.0 | 12.0 | 0.00 | 0.00 | 0.00 | 38 | 1016.3 |
| 20260503183818 | 61 | 316 | 3.0 | 12.0 | 0.00 | 0.00 | 0.00 | 40 | 1016.3 |
| 20260503183315 | 61 | 313 | 3.0 | 12.0 | 0.00 | 0.00 | 0.00 | 37 | 1016.6 |
| 20260503182812 | 60 | 274 | 2.0 | 12.0 | 0.00 | 0.00 | 0.00 | 39 | 1016.3 |
| 20260503182312 | 60 | 220 | 2.0 | 9.0 | 0.00 | 0.00 | 0.00 | 40 | 1016.6 |
| 20260503181808 | 59 | 179 | 3.0 | 10.0 | 0.00 | 0.00 | 0.00 | 40 | 1016.6 |
| 20260503181306 | 59 | 293 | 2.0 | 10.0 | 0.00 | 0.00 | 0.00 | 39 | 1016.3 |
| 20260503180802 | 60 | 213 | 1.0 | 8.0 | 0.00 | 0.00 | 0.00 | 41 | 1016.6 |
| 20260503180300 | 59 | 238 | 2.0 | 6.0 | 0.00 | 0.00 | 0.00 | 42 | 1016.6 |
| 20260503175755 | 59 | 308 | 2.0 | 6.0 | 0.00 | 0.00 | 0.00 | 41 | 1016.6 |
| 20260503175254 | 59 | 305 | 2.0 | 13.0 | 0.00 | 0.00 | 0.00 | 44 | 1016.6 |
| 20260503174749 | 59 | 206 | 2.0 | 13.0 | 0.00 | 0.00 | 0.00 | 44 | 1017.0 |
| 20260503174247 | 59 | 0 | 2.0 | 13.0 | 0.00 | 0.00 | 0.00 | 42 | 1017.0 |
| 20260503173747 | 59 | 78 | 2.0 | 12.0 | 0.00 | 0.00 | 0.00 | 42 | 1017.0 |
| 20260503173244 | 59 | 199 | 3.0 | 12.0 | 0.00 | 0.00 | 0.00 | 39 | 1017.0 |
| 20260503172741 | 59 | 355 | 3.0 | 12.0 | 0.00 | 0.00 | 0.00 | 40 | 1017.0 |
| 20260503172238 | 59 | 264 | 2.0 | 12.0 | 0.00 | 0.00 | 0.00 | 42 | 1017.0 |
| 20260503171734 | 59 | 189 | 2.0 | 11.0 | 0.00 | 0.00 | 0.00 | 43 | 1017.0 |
| 20260503171231 | 58 | 219 | 3.0 | 11.0 | 0.00 | 0.00 | 0.00 | 42 | 1017.0 |
| 20260503170728 | 57 | 344 | 4.0 | 14.0 | 0.00 | 0.00 | 0.00 | 43 | 1017.0 |
| 20260503170225 | 58 | 331 | 4.0 | 14.0 | 0.00 | 0.00 | 0.00 | 40 | 1017.0 |
| 20260503160147 | 56 | 257 | 3.0 | 10.0 | 0.00 | 0.00 | 0.00 | 44 | 1017.6 |
| 20260503150617 | 54 | 302 | 2.0 | 9.0 | 0.00 | 0.00 | 0.00 | 43 | 1018.0 |
| 20260503150113 | 53 | 207 | 2.0 | 9.0 | 0.00 | 0.00 | 0.00 | 47 | 1018.0 |
| 20260503131007 | 47 | 124 | 1.0 | 8.0 | 0.00 | 0.00 | 0.00 | 60 | 1018.0 |
| 20260503130504 | 47 | 328 | 2.0 | 10.0 | 0.00 | 0.00 | 0.00 | 62 | 1018.0 |
| 20260503110355 | 41 | 163 | 0.0 | 4.0 | 0.00 | 0.00 | 0.00 | 74 | 1017.3 |
| 20260503090246 | 41 | 227 | 0.0 | 3.0 | 0.00 | 0.00 | 0.00 | 77 | 1015.6 |
| 20260503081214 | 41 | 113 | 0.0 | 2.0 | 0.00 | 0.00 | 0.00 | 77 | 1015.3 |
| 20260503080709 | 41 | 0 | 0.0 | 3.0 | 0.00 | 0.00 | 0.00 | 77 | 1015.3 |
| 20260503080207 | 41 | 0 | 0.0 | 3.0 | 0.00 | 0.00 | 0.00 | 77 | 1014.9 |
| 20260503072643 | 41 | 291 | 0.0 | 5.0 | 0.00 | 0.00 | 0.00 | 78 | 1014.6 |
| 20260503072140 | 41 | 40 | 0.0 | 0.0 | 0.00 | 0.00 | 0.00 | 78 | 1014.6 |
| 20260503071637 | 41 | 40 | 0.0 | 0.0 | 0.00 | 0.00 | 0.00 | 77 | 1014.6 |
| 20260503071134 | 41 | 39 | 0.0 | 0.0 | 0.00 | 0.00 | 0.00 | 77 | 1014.6 |
| 20260503070631 | 41 | 40 | 0.0 | 0.0 | 0.00 | 0.00 | 0.00 | 76 | 1014.6 |
| 20260503070129 | 41 | 40 | 0.0 | 0.0 | 0.00 | 0.00 | 0.00 | 76 | 1014.6 |